Other Public Products
Issued by NWS Grand Forks, ND

Home | Current Version | Previous Version | Text Only | Print | Product List | Glossary On
Versions: 1 2 3 4 5 6 7 8 9 10 11 12 13 14 15 16 17 18 19 20 21 22 23 24 25 26 27 28 29 30 31 32 33 34 35 36 37 38 39 40 41 42 43 44 45 46 47 48 49 50
000
FPUS83 KFGF 210710
OPUFGF
PRAIRIE TO PINES WEATHER ROUNDUP
NATIONAL WEATHER SERVICE EASTERN NORTH DAKOTA/GRAND FORKS ND
200 AM CDT THU AUG 21 2014

 **SATELLITE DATA USED TO AUGMENT SKY COVER AT AUTOMATED STATIONS**
 *****  WEATHER ACROSS EASTERN NORTH DAKOTA  *****

CITY           SKY/WX    TMP DP  RH WIND       PRES   REMARKS
GRAND FORKS    CLOUDY    70  66  87 SE12      29.72F
GRAND FORKS AF CLOUDY    69  68  99 E9        29.72F
GRAND CITY NWS   N/A     52 N/A N/A E9          N/A
BUXTON         NOT AVBL
DEVILS LAKE    CLOUDY    72  64  78 SE10      29.72S
FARGO          CLOUDY    72  66  81 E12       29.73F
WAHPETON ARPT  CLOUDY    70  64  83 SE12      29.74F VSB 1
$$

 *****  WEATHER ACROSS CENTRAL AND WESTERN NORTH DAKOTA  *****

CITY           SKY/WX    TMP DP  RH WIND       PRES   REMARKS
JAMESTOWN      CLOUDY    71  68  90 S13G18    29.67R
BISMARCK       CLOUDY    69  68  96 NW5       29.73S
MINOT          CLOUDY    64  62  93 NW6       29.74F
MINOT AFB      MOCLDY    64  64 100 NE5       29.74F
GARRISON         N/A     66  65  96 CALM      29.76S
WILLISTON      CLEAR     60  59  96 CALM      29.80S
DICKINSON      CLEAR     59  57  93 W8        29.80S
HETTINGER      CLEAR     57  55  93 N3        29.83S
$$

 *****  OTHER OBSERVATIONS NORTHEAST NORTH DAKOTA  *****

CITY           SKY/WX    TMP DP  RH WIND       PRES   REMARKS
WALHALLA         N/A     68  68 100 SE6       29.75F
LANGDON        FAIR      70  66  88 SE9       29.76F
CAVALIER       FAIR      68  64  88 SE3       29.75F
GRAFTON        FAIR      68  66  94 SE9       29.74F
CANDO          CLOUDY    68  68 100 SE6       29.74S
FORT TOTTEN      N/A     69  67  93 SE6       29.95S
ROLLA          PTSUNNY   64  64 100 NE7       29.79F
RUGBY          PTSUNNY   68  68 100 NE3       29.75S THUNDER FOG
 ***** THE ABOVE OBSERVATIONS ARE NON NWS ARE NOT QUALITY
        CONTROLLED AND MAY MIS-REPORT RAIN FOR SNOW...
$$

 *****  OTHER OBSERVATIONS SOUTHEAST NORTH DAKOTA *****

CITY           SKY/WX    TMP DP  RH WIND       PRES   REMARKS
COOPERSTOWN    NOT AVBL
VALLEY CITY    LGT RAIN  68  68 100 E16       29.66F
OAKES          NOT AVBL
GWINNER        CLOUDY    72  72 100 NW20      29.75F
SHEYENNE NWR     N/A     71  68  89 E5        29.95S
BUFFALO        NOT AVBL
WYNDMERE       NOT AVBL
 ***** THE ABOVE OBSERVATIONS ARE NON NWS ARE NOT QUALITY
       CONTROLLED AND MAY MIS-REPORT RAIN FOR SNOW...
$$

  *****  WEATHER ACROSS NORTHERN MINNESOTA  *****

CITY           SKY/WX    TMP DP  RH WIND       PRES   REMARKS
FLAG ISLAND    CLEAR     70  64  83 S10       29.84F
WARROAD        CLEAR     64  61  88 SE8       29.84F
ROSEAU         CLEAR     66  61  82 SE7       29.82F
HALLOCK        MOCLDY    70  64  83 SE9       29.76F
THF RVR FALLS  MOCLDY    64  63  94 E7        29.79F
HALSTAD          N/A     69  66  92 SE9         N/A
FOSSTON        MOCLDY    64  61  88 SE6       29.81F
BAUDETTE       CLEAR     61  59  93 SE6       29.86F
WASKISH        CLEAR     63  61  94 CALM      29.85F
CROOKSTON      CLOUDY    70  64  83 SE9       29.77F
$$
  *****  WEATHER ACROSS CENTRAL AND WEST MINNESOTA  *****

CITY           SKY/WX    TMP DP  RH WIND       PRES   REMARKS
BEMIDJI        PTCLDY    64  62  95 E9        29.83F
PARK RAPIDS    CLOUDY    67  63  87 SE9       29.83F
WADENA         CLOUDY    66  63  88 E10       29.80F
DETROIT LAKES  CLOUDY    68  63  83 SE10G18   29.81S
MOORHEAD       CLOUDY    72  70  94 E9        29.74F
FERGUS FALLS   CLOUDY    70  64  83 E9        29.74F
ELBOW LAKE     PTSUNNY   68  67  96 SE14      29.75F
MORRIS MN        N/A     70  68  94 SE15      29.75R THUNDER
STAPLES        CLOUDY    64  61  88 E6        29.82F
WHEATON        LGT RAIN  68  66  94 SE14      29.73F
$$
  *****  WEATHER ELSEWHERE ACROSS MINNESOTA  *****

CITY           SKY/WX    TMP DP  RH WIND       PRES   REMARKS
DULUTH         CLOUDY    62  60  93 E7        29.92F FOG
INTRNTL FALLS  CLEAR     58  57  97 CALM      29.91S
ELY            MOCLDY    57  55  94 S3        29.96R
CLOQUET        CLOUDY    61  59  94 E7        29.92F FOG
BRAINERD       MOCLDY    66  62  87 VRB6      29.85F
HIBBING        FOG       59  57  93 SE6       29.92F VSB 1/2
ALEXANDRIA     TSTM      69  65  86 SE15      29.78F
SAINT CLOUD    MOCLDY    70  63  78 SE8       29.82F
MINNEAPOLIS    MOCLDY    71  65  81 E13       29.84F
$$

  *****  WEATHER ACROSS SOUTH DAKOTA  *****

CITY           SKY/WX    TMP DP  RH WIND       PRES   REMARKS
SIOUX FALLS    PTCLDY    77  72  84 S13       29.69F
BROOKINGS      NOT AVBL
WATERTOWN      CLOUDY    72  70  93 SE9       29.70S
HURON          PTCLDY    74  72  93 S8        29.64F
SISSETON         N/A     71  70  96 VRB5      29.70F
ABERDEEN       RAIN      65  65 100 E9        29.73S FOG
MITCHELL       CLEAR     76  74  93 S8        29.65F
PIERRE         PTCLDY    69  67  93 NE8       29.69R
MOBRIDGE       CLEAR     64  64 100 W6        29.68S
RAPID CITY     PTCLDY    66  58  75 N6        29.85R
$$

  *****  SOME WEATHER IN NEARBY STATES *****

CITY           SKY/WX    TMP DP  RH WIND       PRES   REMARKS
GLASGOW MT     MOCLDY    65  59  81 N8        29.83S
GREAT FALLS MT LGT RAIN  54  53  97 W7        30.00S
CHEYENNE WY    PTCLDY    62  45  53 W15       30.06F
SCOTTSBLUFF NE PTCLDY    68  51  54 NW6       29.90F
OMAHA NE       MOCLDY    81  71  71 S14       29.78F
DES MOINES IA  PTCLDY    77  72  84 S7        29.84S
DAVENPORT IA   MOCLDY    70  68  93 E6        29.93F
CHICAGO IL     CLOUDY    73  64  73 SW5       29.95S
EAU CLAIRE WI  MOCLDY    67  63  87 E7        29.89F
LA CROSSE WI   MOCLDY    72  66  81 SE8       29.89F
$$

  *****  SOME NATIONAL WEATHER *****

CITY           SKY/WX    TMP DP  RH WIND       PRES   REMARKS
LA GUARDIA NY  CLOUDY    73  61  65 SW6       30.03S
RALEIGH NC     MOCLDY    73  70  90 CALM      29.99F
ATLANTA GA     CLOUDY    73  67  81 CALM      30.09F
NEW ORLEANS LA MOCLDY    78  73  84 SE5       30.08S
OKLAHOMA CITY  PTCLDY    81  67  62 S12       29.92F
ALBUQUERQUE NM CLEAR     71  46  40 S5        30.10R
SALT LAKE CITY CLOUDY    67  52  58 SE13      30.00F
LOS ANGELES CA CLEAR     67  60  78 W6        29.93S
BOISE ID       MOCLDY    71  47  42 W5        29.86R
SEATTLE WA     PTCLDY    58  51  78 SW8       30.02S
$$

*** WEATHER ACROSS MANITOBA...SASKATCHEWAN AND ONTARIO ***
                ***ONTARIO***

CITY           SKY/WX    TMP DP  RH WIND       PRES   REMARKS
GERALDTON      CLOUDY    63  61  94 CALM      29.99S
THUNDER BAY    CLOUDY    61  61 100 CALM      29.96S FOG
SIOUX LOOKOUT  CLEAR     61  57  88 SE6       29.92F
TORONTO        CLOUDY    66  64  94 CALM      29.91F
BIG TROUT LK   CLEAR     64  57  77 S7        29.95R
PICKLE LAKE    NOT AVBL
DRYDEN         CLEAR     63  61  94 S7        29.91F
KENORA         CLEAR     63  57  82 SE7       29.89S
$$
                *** MANITOBA***

CITY           SKY/WX    TMP DP  RH WIND       PRES   REMARKS
BRANDON        TSTM      64  63  94 NE9       29.79F
DAUPHIN        LGT RAIN  64  63  94 SW6       29.76S
ISLAND LAKE    PTCLDY    70  59  68 S5        29.82S
PILOT MOUND      N/A     64  63  94 N8          N/A
THE PAS        CLOUDY    63  59  88 NW12G24   29.76R
THOMPSON       LGT RAIN  64  64 100 S5        29.71
WINNIPEG       MOCLDY    70  63  78 SE12G18   29.78F
LYNN LAKE      CLOUDY    54  52  94 MISG      29.82R
CHURCHILL      PTCLDY    48  46  93 N6        29.74F
GILLAM         CLOUDY    68  57  68 S7        29.76S
$$
                ***SASKATCHEWAN***

CITY           SKY/WX    TMP DP  RH WIND       PRES   REMARKS
ESTEVAN        CLOUDY    63  63 100 N3        29.80
KINDERSLEY     MOCLDY    57  55  94 N9        29.95R
LLOYDMINSTER   CLEAR     54  52  94 N5        29.99R
PRINCE ALBERT  PTCLDY    54  54 100 W3        29.88S
REGINA         PTCLDY    59  59 100 NW6       29.83R


USA.gov is the U.S. government's official web portal to all federal, state and local government web resources and services.